Time,TemperatureF,DewpointF,PressureIn,WindDirection,WindDirectionDegrees,WindSpeedMPH,WindSpeedGustMPH,Humidity,HourlyPrecipIn,Conditions,Clouds,dailyrainin,SoftwareType,DateUTC
2013-03-25 00:02:00,52.0,44.0,30.03,West,266,0.0,1.0,73,0.00,,,0.00,,2013-03-25 07:02:00,
2013-03-25 00:12:00,52.0,44.0,30.03,West,266,0.0,1.0,73,0.00,,,0.00,,2013-03-25 07:12:00,
2013-03-25 00:21:00,51.0,44.0,30.03,West,266,1.0,1.0,76,0.00,,,0.00,,2013-03-25 07:21:00,
2013-03-25 00:31:00,51.0,43.0,30.03,West,266,0.0,1.0,74,0.00,,,0.00,,2013-03-25 07:31:00,
2013-03-25 00:42:00,51.0,43.0,30.03,West,266,0.0,1.0,74,0.00,,,0.00,,2013-03-25 07:42:00,
2013-03-25 00:52:00,50.0,43.0,30.03,West,266,1.0,2.0,76,0.00,,,0.00,,2013-03-25 07:52:00,
2013-03-25 01:02:00,50.0,42.0,30.02,West,266,0.0,1.0,75,0.00,,,0.00,,2013-03-25 08:02:00,
2013-03-25 01:11:00,50.0,42.0,30.02,West,266,0.0,1.0,75,0.00,,,0.00,,2013-03-25 08:11:00,
2013-03-25 01:22:00,49.0,41.0,30.02,West,267,1.0,2.0,75,0.00,,,0.00,,2013-03-25 08:22:00,
2013-03-25 01:32:00,49.0,41.0,30.02,West,267,0.0,1.0,74,0.00,,,0.00,,2013-03-25 08:32:00,
2013-03-25 01:42:00,49.0,41.0,30.02,West,267,0.0,1.0,74,0.00,,,0.00,,2013-03-25 08:42:00,
2013-03-25 01:52:00,49.0,41.0,30.02,West,267,0.0,1.0,74,0.00,,,0.00,,2013-03-25 08:52:00,
2013-03-25 02:02:00,48.0,41.0,30.02,West,267,0.0,1.0,76,0.00,,,0.00,,2013-03-25 09:02:00,
2013-03-25 02:11:00,48.0,41.0,30.02,West,267,0.0,1.0,76,0.00,,,0.00,,2013-03-25 09:11:00,
2013-03-25 02:22:00,48.0,40.0,30.01,West,267,1.0,1.0,75,0.00,,,0.00,,2013-03-25 09:22:00,
2013-03-25 02:32:00,47.0,40.0,30.01,West,267,0.0,1.0,76,0.00,,,0.00,,2013-03-25 09:32:00,
2013-03-25 02:42:00,47.0,40.0,30.01,West,267,0.0,1.0,76,0.00,,,0.00,,2013-03-25 09:42:00,
2013-03-25 02:52:00,47.0,40.0,30.01,West,267,1.0,2.0,76,0.00,,,0.00,,2013-03-25 09:52:00,
2013-03-25 03:02:00,47.0,40.0,30.01,West,267,0.0,1.0,76,0.00,,,0.00,,2013-03-25 10:02:00,
2013-03-25 03:12:00,47.0,40.0,30.01,West,267,0.0,1.0,76,0.00,,,0.00,,2013-03-25 10:12:00,
2013-03-25 03:22:00,46.0,39.0,30.01,West,267,0.0,1.0,75,0.00,,,0.00,,2013-03-25 10:22:00,
2013-03-25 03:32:00,46.0,39.0,30.01,West,269,0.0,2.0,76,0.00,,,0.00,,2013-03-25 10:32:00,
2013-03-25 03:42:00,46.0,39.0,30.01,West,269,0.0,2.0,76,0.00,,,0.00,,2013-03-25 10:42:00,
2013-03-25 03:52:00,46.0,39.0,30.00,West,269,0.0,1.0,77,0.00,,,0.00,,2013-03-25 10:52:00,
2013-03-25 04:02:00,46.0,40.0,30.00,West,269,0.0,1.0,78,0.00,,,0.00,,2013-03-25 11:02:00,
2013-03-25 04:12:00,46.0,40.0,30.00,West,269,0.0,1.0,78,0.00,,,0.00,,2013-03-25 11:12:00,
2013-03-25 04:22:00,45.0,39.0,30.00,West,269,0.0,1.0,78,0.00,,,0.00,,2013-03-25 11:22:00,
2013-03-25 04:32:00,46.0,40.0,29.99,West,269,1.0,1.0,79,0.00,,,0.00,,2013-03-25 11:32:00,
2013-03-25 04:42:00,46.0,40.0,29.99,West,269,1.0,1.0,79,0.00,,,0.00,,2013-03-25 11:42:00,
2013-03-25 04:52:00,45.0,39.0,29.99,West,269,0.0,1.0,78,0.00,,,0.00,,2013-03-25 11:52:00,
2013-03-25 05:02:00,45.0,39.0,30.00,West,269,0.0,1.0,79,0.00,,,0.00,,2013-03-25 12:02:00,
2013-03-25 05:12:00,45.0,39.0,30.00,West,269,0.0,1.0,79,0.00,,,0.00,,2013-03-25 12:12:00,
2013-03-25 05:22:00,45.0,40.0,30.00,West,269,0.0,1.0,81,0.00,,,0.00,,2013-03-25 12:22:00,
2013-03-25 05:32:00,44.0,39.0,30.00,West,269,1.0,1.0,82,0.00,,,0.00,,2013-03-25 12:32:00,
2013-03-25 05:42:00,44.0,39.0,30.00,West,269,1.0,1.0,82,0.00,,,0.00,,2013-03-25 12:42:00,
2013-03-25 05:52:00,44.0,39.0,30.01,West,269,1.0,1.0,84,0.00,,,0.00,,2013-03-25 12:52:00,
2013-03-25 06:02:00,43.0,39.0,30.01,West,269,1.0,1.0,85,0.00,,,0.00,,2013-03-25 13:02:00,
2013-03-25 06:12:00,43.0,39.0,30.01,West,269,1.0,1.0,85,0.00,,,0.00,,2013-03-25 13:12:00,
2013-03-25 06:22:00,43.0,39.0,30.01,West,269,1.0,2.0,85,0.00,,,0.00,,2013-03-25 13:22:00,
2013-03-25 06:32:00,43.0,40.0,30.00,West,271,1.0,2.0,88,0.00,,,0.00,,2013-03-25 13:32:00,
2013-03-25 06:42:00,43.0,40.0,30.00,West,271,1.0,2.0,88,0.00,,,0.00,,2013-03-25 13:42:00,
2013-03-25 06:52:00,43.0,40.0,30.00,NE,45,1.0,3.0,88,0.00,,,0.00,,2013-03-25 13:52:00,
2013-03-25 07:02:00,43.0,40.0,30.00,NE,45,1.0,3.0,88,0.00,,,0.00,,2013-03-25 14:02:00,
2013-03-25 07:12:00,43.0,40.0,30.00,NE,45,1.0,3.0,88,0.00,,,0.00,,2013-03-25 14:12:00,
2013-03-25 07:22:00,43.0,41.0,30.00,NE,49,1.0,2.0,91,0.00,,,0.00,,2013-03-25 14:22:00,
2013-03-25 07:32:00,43.0,40.0,30.00,NE,49,1.0,2.0,90,0.00,,,0.00,,2013-03-25 14:32:00,
2013-03-25 07:42:00,43.0,40.0,30.00,NE,49,1.0,2.0,90,0.00,,,0.00,,2013-03-25 14:42:00,
2013-03-25 07:52:00,44.0,41.0,30.00,NE,49,1.0,2.0,90,0.00,,,0.00,,2013-03-25 14:52:00,
2013-03-25 08:02:00,44.0,41.0,30.00,ENE,63,1.0,3.0,90,0.00,,,0.00,,2013-03-25 15:02:00,
2013-03-25 08:12:00,44.0,41.0,30.00,ENE,63,1.0,3.0,90,0.00,,,0.00,,2013-03-25 15:12:00,
2013-03-25 08:22:00,45.0,42.0,30.01,NNW,335,0.0,2.0,89,0.00,,,0.00,,2013-03-25 15:22:00,
2013-03-25 08:32:00,45.0,42.0,30.01,NNW,335,1.0,2.0,90,0.00,,,0.00,,2013-03-25 15:32:00,
2013-03-25 08:42:00,45.0,42.0,30.01,NNW,335,1.0,2.0,90,0.00,,,0.00,,2013-03-25 15:42:00,
2013-03-25 08:52:00,45.0,42.0,30.01,NNW,334,0.0,2.0,88,0.00,,,0.00,,2013-03-25 15:52:00,
2013-03-25 09:03:00,44.0,41.0,30.01,NW,323,1.0,2.0,90,0.00,,,0.00,,2013-03-25 16:03:00,
2013-03-25 09:12:00,44.0,41.0,30.01,NW,323,1.0,2.0,90,0.00,,,0.00,,2013-03-25 16:12:00,
2013-03-25 09:22:00,44.0,41.0,30.01,NW,323,1.0,2.0,90,0.00,,,0.00,,2013-03-25 16:22:00,
2013-03-25 09:32:00,46.0,42.0,30.02,WNW,283,1.0,2.0,87,0.00,,,0.00,,2013-03-25 16:32:00,
2013-03-25 09:42:00,46.0,42.0,30.02,WNW,283,1.0,2.0,87,0.00,,,0.00,,2013-03-25 16:42:00,
2013-03-25 09:52:00,46.0,41.0,30.02,WSW,255,1.0,2.0,84,0.00,,,0.00,,2013-03-25 16:52:00,
2013-03-25 10:02:00,48.0,43.0,30.03,SW,232,2.0,4.0,82,0.00,,,0.00,,2013-03-25 17:02:00,
2013-03-25 10:12:00,48.0,43.0,30.03,SW,232,2.0,4.0,82,0.00,,,0.00,,2013-03-25 17:12:00,
2013-03-25 10:22:00,49.0,43.0,30.03,WSW,242,1.0,3.0,80,0.00,,,0.00,,2013-03-25 17:22:00,
2013-03-25 10:32:00,49.0,43.0,30.03,WSW,252,2.0,3.0,80,0.00,,,0.00,,2013-03-25 17:32:00,
2013-03-25 10:42:00,49.0,43.0,30.03,WSW,252,2.0,3.0,80,0.00,,,0.00,,2013-03-25 17:42:00,
2013-03-25 10:51:00,50.0,43.0,30.04,WSW,241,1.0,3.0,77,0.00,,,0.00,,2013-03-25 17:51:00,
2013-03-25 11:03:00,51.0,43.0,30.03,SSE,154,2.0,4.0,75,0.00,,,0.00,,2013-03-25 18:03:00,
2013-03-25 11:12:00,51.0,43.0,30.03,SSE,154,2.0,4.0,75,0.00,,,0.00,,2013-03-25 18:12:00,
2013-03-25 11:22:00,52.0,43.0,30.04,WSW,254,1.0,4.0,70,0.00,,,0.00,,2013-03-25 18:22:00,
2013-03-25 11:32:00,53.0,45.0,30.04,WNW,288,2.0,3.0,75,0.00,,,0.00,,2013-03-25 18:32:00,
2013-03-25 11:42:00,53.0,45.0,30.04,WNW,288,2.0,3.0,75,0.00,,,0.00,,2013-03-25 18:42:00,
2013-03-25 11:52:00,53.0,46.0,30.04,WNW,294,1.0,4.0,77,0.00,,,0.00,,2013-03-25 18:52:00,
2013-03-25 12:02:00,53.0,46.0,30.04,WSW,242,2.0,4.0,77,0.00,,,0.00,,2013-03-25 19:02:00,
2013-03-25 12:12:00,53.0,46.0,30.04,WSW,242,2.0,4.0,77,0.00,,,0.00,,2013-03-25 19:12:00,
2013-03-25 12:22:00,54.0,46.0,30.03,West,273,1.0,4.0,74,0.00,,,0.00,,2013-03-25 19:22:00,
2013-03-25 12:32:00,54.0,46.0,30.04,WNW,288,2.0,4.0,74,0.00,,,0.00,,2013-03-25 19:32:00,
2013-03-25 12:42:00,54.0,46.0,30.04,WNW,288,2.0,4.0,74,0.00,,,0.00,,2013-03-25 19:42:00,
2013-03-25 12:52:00,55.0,46.0,30.04,West,277,1.0,5.0,72,0.00,,,0.00,,2013-03-25 19:52:00,
2013-03-25 13:02:00,55.0,46.0,30.04,WNW,297,2.0,6.0,71,0.00,,,0.00,,2013-03-25 20:02:00,
2013-03-25 13:12:00,55.0,46.0,30.04,WNW,297,2.0,6.0,71,0.00,,,0.00,,2013-03-25 20:12:00,
2013-03-25 13:22:00,56.0,46.0,30.03,West,271,3.0,5.0,69,0.00,,,0.00,,2013-03-25 20:22:00,
2013-03-25 13:32:00,57.0,47.0,30.03,West,261,2.0,5.0,68,0.00,,,0.00,,2013-03-25 20:32:00,
2013-03-25 13:42:00,57.0,47.0,30.03,West,261,2.0,5.0,68,0.00,,,0.00,,2013-03-25 20:42:00,
2013-03-25 13:52:00,57.0,46.0,30.02,NW,315,1.0,3.0,66,0.00,,,0.00,,2013-03-25 20:52:00,
2013-03-25 14:02:00,57.0,45.0,30.01,WSW,246,2.0,6.0,64,0.00,,,0.00,,2013-03-25 21:02:00,
2013-03-25 14:12:00,57.0,45.0,30.01,WSW,246,2.0,6.0,64,0.00,,,0.00,,2013-03-25 21:12:00,
2013-03-25 14:22:00,57.0,45.0,30.01,West,277,2.0,5.0,63,0.00,,,0.00,,2013-03-25 21:22:00,
2013-03-25 14:32:00,57.0,45.0,30.01,WNW,294,3.0,6.0,63,0.00,,,0.00,,2013-03-25 21:32:00,
2013-03-25 14:42:00,57.0,45.0,30.01,WNW,294,3.0,6.0,63,0.00,,,0.00,,2013-03-25 21:42:00,
2013-03-25 14:52:00,56.0,43.0,30.01,WSW,254,3.0,8.0,61,0.00,,,0.00,,2013-03-25 21:52:00,
2013-03-25 15:03:00,57.0,44.0,30.00,WSW,246,3.0,6.0,62,0.00,,,0.00,,2013-03-25 22:03:00,
2013-03-25 15:12:00,57.0,44.0,30.00,WSW,246,3.0,6.0,62,0.00,,,0.00,,2013-03-25 22:12:00,
2013-03-25 15:22:00,58.0,45.0,30.00,WNW,295,2.0,8.0,62,0.00,,,0.00,,2013-03-25 22:22:00,
2013-03-25 15:32:00,58.0,46.0,30.00,WNW,282,3.0,9.0,64,0.00,,,0.00,,2013-03-25 22:32:00,
2013-03-25 15:42:00,58.0,46.0,30.00,WNW,282,3.0,9.0,64,0.00,,,0.00,,2013-03-25 22:42:00,
2013-03-25 15:52:00,55.0,45.0,30.00,WSW,251,2.0,7.0,69,0.00,,,0.00,,2013-03-25 22:52:00,
2013-03-25 16:02:00,54.0,45.0,30.00,West,266,3.0,8.0,72,0.00,,,0.00,,2013-03-25 23:02:00,
2013-03-25 16:11:00,54.0,45.0,30.00,West,266,3.0,8.0,72,0.00,,,0.00,,2013-03-25 23:11:00,
2013-03-25 16:22:00,53.0,44.0,30.00,West,269,2.0,8.0,72,0.00,,,0.00,,2013-03-25 23:22:00,
2013-03-25 16:32:00,54.0,45.0,29.99,SSW,213,4.0,9.0,71,0.00,,,0.00,,2013-03-25 23:32:00,
2013-03-25 16:42:00,54.0,45.0,29.99,SSW,213,4.0,9.0,71,0.00,,,0.00,,2013-03-25 23:42:00,
2013-03-25 16:52:00,55.0,43.0,29.99,SW,219,2.0,5.0,65,0.00,,,0.00,,2013-03-25 23:52:00,
2013-03-25 17:02:00,56.0,44.0,29.98,NW,304,3.0,8.0,64,0.00,,,0.00,,2013-03-26 00:02:00,
2013-03-25 17:11:00,56.0,44.0,29.98,NW,304,3.0,8.0,64,0.00,,,0.00,,2013-03-26 00:11:00,
2013-03-25 17:22:00,55.0,42.0,29.98,WSW,257,3.0,7.0,62,0.00,,,0.00,,2013-03-26 00:22:00,
2013-03-25 17:32:00,54.0,43.0,29.97,West,262,2.0,6.0,65,0.00,,,0.00,,2013-03-26 00:32:00,
2013-03-25 17:42:00,54.0,43.0,29.97,West,262,2.0,6.0,65,0.00,,,0.00,,2013-03-26 00:42:00,
2013-03-25 17:52:00,54.0,42.0,29.97,SW,226,2.0,5.0,64,0.00,,,0.00,,2013-03-26 00:52:00,
2013-03-25 18:02:00,53.0,43.0,29.98,West,268,2.0,7.0,69,0.00,,,0.00,,2013-03-26 01:02:00,
2013-03-25 18:11:00,53.0,43.0,29.98,West,268,2.0,7.0,69,0.00,,,0.00,,2013-03-26 01:11:00,
2013-03-25 18:22:00,53.0,43.0,29.97,SSW,201,3.0,5.0,70,0.00,,,0.00,,2013-03-26 01:22:00,
2013-03-25 18:32:00,52.0,44.0,29.97,SSW,209,2.0,5.0,73,0.00,,,0.00,,2013-03-26 01:32:00,
2013-03-25 18:42:00,52.0,44.0,29.97,SSW,209,2.0,5.0,73,0.00,,,0.00,,2013-03-26 01:42:00,
2013-03-25 18:52:00,50.0,42.0,29.97,WSW,257,3.0,6.0,75,0.00,,,0.00,,2013-03-26 01:52:00,
2013-03-25 19:02:00,50.0,43.0,29.97,NW,305,2.0,5.0,77,0.00,,,0.00,,2013-03-26 02:02:00,
2013-03-25 19:11:00,50.0,43.0,29.97,NW,305,2.0,5.0,77,0.00,,,0.00,,2013-03-26 02:11:00,
2013-03-25 19:22:00,49.0,42.0,29.98,WSW,255,2.0,6.0,78,0.00,,,0.00,,2013-03-26 02:22:00,
2013-03-25 19:32:00,49.0,43.0,29.98,WNW,298,2.0,5.0,80,0.00,,,0.00,,2013-03-26 02:32:00,
2013-03-25 19:42:00,49.0,43.0,29.98,WNW,298,2.0,5.0,80,0.00,,,0.00,,2013-03-26 02:42:00,
2013-03-25 19:52:00,48.0,43.0,29.99,West,267,1.0,4.0,82,0.00,,,0.00,,2013-03-26 02:52:00,
2013-03-25 20:02:00,47.0,42.0,29.99,WNW,286,2.0,3.0,84,0.00,,,0.00,,2013-03-26 03:02:00,
2013-03-25 20:11:00,47.0,42.0,29.99,WNW,286,2.0,3.0,84,0.00,,,0.00,,2013-03-26 03:11:00,
2013-03-25 20:22:00,47.0,43.0,29.98,WSW,248,1.0,3.0,85,0.00,,,0.00,,2013-03-26 03:22:00,
2013-03-25 20:33:00,47.0,43.0,29.98,WSW,248,1.0,2.0,85,0.00,,,0.00,,2013-03-26 03:33:00,
2013-03-25 20:42:00,47.0,43.0,29.98,WSW,248,1.0,2.0,85,0.00,,,0.00,,2013-03-26 03:42:00,
2013-03-25 20:52:00,47.0,43.0,29.98,WSW,243,1.0,2.0,86,0.00,,,0.00,,2013-03-26 03:52:00,
2013-03-25 21:03:00,47.0,43.0,29.97,SW,223,1.0,2.0,86,0.00,,,0.00,,2013-03-26 04:03:00,
2013-03-25 21:12:00,47.0,43.0,29.97,SW,223,1.0,2.0,86,0.00,,,0.00,,2013-03-26 04:12:00,
2013-03-25 21:22:00,47.0,43.0,29.96,East,84,1.0,2.0,86,0.00,,,0.00,,2013-03-26 04:22:00,
2013-03-25 21:32:00,47.0,43.0,29.97,NW,305,0.0,2.0,86,0.00,,,0.00,,2013-03-26 04:32:00,
2013-03-25 21:42:00,47.0,43.0,29.97,NW,305,0.0,2.0,86,0.00,,,0.00,,2013-03-26 04:42:00,
2013-03-25 21:52:00,47.0,44.0,29.98,West,275,1.0,3.0,88,0.00,,,0.00,,2013-03-26 04:52:00,
2013-03-25 22:02:00,47.0,44.0,29.99,NW,306,1.0,3.0,89,0.00,,,0.00,,2013-03-26 05:02:00,
2013-03-25 22:11:00,47.0,44.0,29.99,NW,306,1.0,3.0,89,0.00,,,0.00,,2013-03-26 05:11:00,
2013-03-25 22:22:00,46.0,43.0,29.99,WNW,292,1.0,2.0,89,0.00,,,0.00,,2013-03-26 05:22:00,
2013-03-25 22:32:00,45.0,42.0,30.00,WNW,292,1.0,2.0,89,0.00,,,0.00,,2013-03-26 05:32:00,
2013-03-25 22:42:00,45.0,42.0,30.00,WNW,292,1.0,2.0,89,0.00,,,0.00,,2013-03-26 05:42:00,
2013-03-25 22:52:00,45.0,42.0,30.00,WNW,292,0.0,2.0,90,0.00,,,0.00,,2013-03-26 05:52:00,
2013-03-25 23:01:00,44.0,42.0,30.01,NNW,343,1.0,2.0,91,0.00,,,0.00,,2013-03-26 06:01:00,
2013-03-25 23:12:00,44.0,42.0,30.01,NNW,343,1.0,2.0,91,0.00,,,0.00,,2013-03-26 06:12:00,
2013-03-25 23:21:00,43.0,41.0,30.01,ENE,74,0.0,1.0,92,0.00,,,0.00,,2013-03-26 06:21:00,
2013-03-25 23:32:00,44.0,42.0,30.01,NNW,342,1.0,2.0,93,0.00,,,0.00,,2013-03-26 06:32:00,
2013-03-25 23:42:00,44.0,42.0,30.01,NNW,342,1.0,2.0,93,0.00,,,0.00,,2013-03-26 06:42:00,
2013-03-25 23:52:00,44.0,42.0,30.01,NW,317,0.0,1.0,92,0.00,,,0.00,,2013-03-26 06:52:00,